Afton Municipal Airport, WY

7:29 PM MST on November 12, 2019 (GMT -0700)
Afton Municipal

Weather History for KAFO - October, 2019

Change the Weather History Date:

Sunday, October 20, 2019

  Actual Average Record
Temperature  
Mean Temperature 30 °F -  
Max Temperature 32 °F 61 °F 68 °F (2014)
Min Temperature 28 °F 22 °F 17 °F (2016)
Degree Days  
Heating Degree Days 35    
Moisture  
Dew Point 27 °F    
Average Humidity 88    
Maximum Humidity 100    
Minimum Humidity 75    
Precipitation  
Precipitation 0.00 in - - ()
Sea Level Pressure  
Sea Level Pressure 29.99 in    
Wind  
Wind Speed 4 mph ()    
Max Wind Speed 13 mph    
Max Gust Speed 17 mph    
Visibility 7.9 miles    
Events Snow    
Averages and records for this station are not official NWS values.
T = Trace of Precipitation, MM = Missing Value Source: Averaged Metar Reports

Daily Weather History Graph

Daily Weather History Graph

Search for Another Location

Airport or City:

Astronomy

Oct. 20, 2019 Rise Set
Actual Time 7:42 AM MDT 6:33 PM MDT
Civil Twilight 7:14 AM MDT 7:02 PM MDT
Nautical Twilight 6:41 AM MDT 7:35 PM MDT
Astronomical Twilight 6:08 AM MDT 8:07 PM MDT
Moon 11:41 PM MDT (10/20) 2:19 PM MDT (10/20)
Length of Visible Light 11h 48m
Length of Day
10h 50m
Waning Gibbous, 58% of the Moon is Illuminated
Oct 20
Waning Gibbous
Oct 21
Last Quarter
Oct 27
New
Nov 4
First Quarter
Nov 12
Full

Hourly Weather History & Observations

Time (MDT) Temp. Windchill Dew Point Humidity Pressure Visibility Wind Dir Wind Speed Gust Speed Precip Events Conditions
12:15 AM 30.2 °F - 26.6 °F 86% 29.78 in 4.0 mi Calm Calm - N/A Snow Light Snow
12:35 AM 30.2 °F - 28.4 °F 93% 29.78 in 2.0 mi Calm Calm - N/A Snow Light Snow
12:55 AM 30.2 °F - 28.4 °F 93% 29.79 in 2.0 mi North - - N/A Snow Light Snow
1:15 AM 30.2 °F 25.4 °F 28.4 °F 93% 29.79 in 2.0 mi North 4.6 mph - N/A Snow Light Snow
1:35 AM 30.2 °F 26.7 °F 28.4 °F 93% 29.80 in 3.0 mi North 3.5 mph - N/A Snow Light Snow
1:55 AM 30.2 °F 26.7 °F 28.4 °F 93% 29.80 in 2.5 mi NE 3.5 mph - N/A Snow Light Snow
2:15 AM 30.2 °F - 28.4 °F 93% 29.81 in 1.8 mi Calm Calm - N/A Snow Light Snow
2:35 AM 30.2 °F - 28.4 °F 93% 29.82 in 2.0 mi Calm Calm - N/A Snow Light Snow
2:55 AM 30.2 °F - 28.4 °F 93% 29.82 in 2.0 mi North - - N/A Snow Light Snow
3:15 AM 30.2 °F - 26.6 °F 86% 29.83 in 2.0 mi North - - N/A Snow Light Snow
3:35 AM 28.4 °F - 26.6 °F 93% 29.83 in 1.8 mi North - - N/A Snow Light Snow
3:55 AM 28.4 °F - 28.4 °F 100% 29.84 in 2.0 mi North - - N/A Snow Light Snow
4:15 AM 28.4 °F - 28.4 °F 100% 29.84 in 2.0 mi North - - N/A Snow Light Snow
4:35 AM 28.4 °F - 28.4 °F 100% 29.85 in 2.0 mi North - - N/A Snow Light Snow
4:55 AM 28.4 °F - 28.4 °F 100% 29.86 in 3.0 mi North - - N/A Snow Light Snow
5:15 AM 28.4 °F 20.4 °F 26.6 °F 93% 29.87 in 7.0 mi NW 8.1 mph - N/A Snow Light Snow
5:35 AM 30.2 °F - 26.6 °F 86% 29.88 in 10.0 mi North - - N/A   Overcast
5:55 AM 30.2 °F 25.4 °F 24.8 °F 80% 29.89 in 10.0 mi WNW 4.6 mph - N/A   Overcast
6:15 AM 30.2 °F 25.4 °F 24.8 °F 80% 29.90 in 10.0 mi West 4.6 mph - N/A   Overcast
6:35 AM 28.4 °F 23.3 °F 24.8 °F 86% 29.90 in 10.0 mi NW 4.6 mph - N/A   Overcast
6:55 AM 28.4 °F 24.6 °F 24.8 °F 86% 29.92 in 10.0 mi NNW 3.5 mph - N/A   Overcast
7:15 AM 28.4 °F 24.6 °F 26.6 °F 93% 29.92 in 3.0 mi North 3.5 mph - N/A Snow Light Snow
7:35 AM 28.4 °F - 26.6 °F 93% 29.93 in 1.0 mi Calm Calm - N/A Snow Snow
7:55 AM 28.4 °F - 26.6 °F 93% 29.94 in 5.0 mi Calm Calm - N/A   Overcast
8:15 AM 28.4 °F - 26.6 °F 93% 29.95 in 10.0 mi Calm Calm - N/A   Overcast
8:35 AM 28.4 °F - 26.6 °F 93% 29.96 in 10.0 mi Calm Calm - N/A   Overcast
8:55 AM 28.4 °F - 26.6 °F 93% 29.97 in 10.0 mi Calm Calm - N/A   Overcast
9:15 AM 30.2 °F 25.4 °F 26.6 °F 86% 29.99 in 7.0 mi WNW 4.6 mph - N/A   Overcast
9:35 AM 30.2 °F 22.6 °F 26.6 °F 86% 30.00 in 10.0 mi WNW 8.1 mph - N/A   Overcast
9:55 AM 30.2 °F 22.6 °F 24.8 °F 80% 30.01 in 10.0 mi NW 8.1 mph - N/A   Overcast
10:15 AM 30.2 °F 21.3 °F 24.8 °F 80% 30.03 in 10.0 mi NW 10.4 mph - N/A   Overcast
10:35 AM 30.2 °F 22.6 °F 24.8 °F 80% 30.03 in 10.0 mi NW 8.1 mph - N/A   Overcast
10:55 AM 30.2 °F 23.4 °F 26.6 °F 86% 30.05 in 10.0 mi WNW 6.9 mph - N/A   Overcast
11:15 AM 30.2 °F 23.4 °F 26.6 °F 86% 30.05 in 10.0 mi WNW 6.9 mph - N/A   Overcast
11:35 AM 30.2 °F 22.6 °F 26.6 °F 86% 30.06 in 10.0 mi NW 8.1 mph - N/A   Overcast
11:55 AM 30.2 °F 22.6 °F 24.8 °F 80% 30.06 in 10.0 mi NW 8.1 mph - N/A   Overcast
12:15 PM 30.2 °F 23.4 °F 26.6 °F 86% 30.06 in 10.0 mi NNW 6.9 mph - N/A   Overcast
12:35 PM 30.2 °F 24.3 °F 26.6 °F 86% 30.07 in 10.0 mi NNW 5.8 mph - N/A   Overcast
12:55 PM 32.0 °F 28.7 °F 26.6 °F 80% 30.07 in 10.0 mi NNW 3.5 mph - N/A   Overcast
1:15 PM 32.0 °F 25.6 °F 26.6 °F 80% 30.07 in 10.0 mi NW 6.9 mph - N/A   Overcast
1:35 PM 32.0 °F 24.2 °F 26.6 °F 80% 30.07 in 10.0 mi NNW 9.2 mph - N/A   Overcast
1:55 PM 32.0 °F 23.0 °F 26.6 °F 80% 30.07 in 10.0 mi NNW 11.5 mph - N/A   Overcast
2:15 PM 32.0 °F 22.5 °F 24.8 °F 75% 30.08 in 10.0 mi North 12.7 mph 17.3 mph N/A   Overcast
2:35 PM 32.0 °F 23.6 °F 24.8 °F 75% 30.08 in 10.0 mi NW 10.4 mph 17.3 mph N/A   Overcast
2:55 PM 32.0 °F 24.2 °F 26.6 °F 80% 30.09 in 10.0 mi WNW 9.2 mph - N/A   Overcast
3:15 PM 32.0 °F 24.2 °F 26.6 °F 80% 30.09 in 10.0 mi NW 9.2 mph - N/A   Overcast
3:35 PM 32.0 °F 28.7 °F 26.6 °F 80% 30.09 in 10.0 mi NW 3.5 mph - N/A   Overcast
3:55 PM 32.0 °F 24.8 °F 28.4 °F 87% 30.09 in 10.0 mi WSW 8.1 mph - N/A   Overcast
4:15 PM 30.2 °F 20.8 °F 28.4 °F 93% 30.09 in 0.8 mi WNW 11.5 mph - N/A Snow Light Snow
4:35 PM 30.2 °F 26.7 °F 28.4 °F 93% 30.09 in 10.0 mi NNE 3.5 mph - N/A   Overcast
4:55 PM 32.0 °F 26.4 °F 28.4 °F 87% 30.09 in 10.0 mi NE 5.8 mph - N/A   Overcast
5:15 PM 32.0 °F 27.5 °F 28.4 °F 87% 30.10 in 10.0 mi ENE 4.6 mph - N/A   Overcast
5:35 PM 32.0 °F - 26.6 °F 80% 30.10 in 10.0 mi Calm Calm - N/A   Overcast
5:55 PM 32.0 °F 28.7 °F 26.6 °F 80% 30.10 in 10.0 mi SW 3.5 mph - N/A Snow Light Snow
6:15 PM 30.2 °F - 28.4 °F 93% 30.09 in 10.0 mi Calm Calm - N/A   Overcast
6:35 PM 30.2 °F 25.4 °F 28.4 °F 93% 30.09 in 10.0 mi South 4.6 mph - N/A   Overcast
6:55 PM 30.2 °F 26.7 °F 28.4 °F 93% 30.09 in 10.0 mi ESE 3.5 mph - N/A   Overcast
7:15 PM 30.2 °F - 28.4 °F 93% 30.09 in 10.0 mi Calm Calm - N/A   Mostly Cloudy
7:35 PM 30.2 °F - 26.6 °F 86% 30.10 in 10.0 mi Calm Calm - N/A   Mostly Cloudy
7:55 PM 28.4 °F 24.6 °F 26.6 °F 93% 30.10 in 10.0 mi WSW 3.5 mph - N/A   Scattered Clouds
8:15 PM 28.4 °F 22.2 °F 26.6 °F 93% 30.10 in 10.0 mi SSW 5.8 mph - N/A   Mostly Cloudy
8:35 PM 28.4 °F 24.6 °F 26.6 °F 93% 30.11 in 10.0 mi SSE 3.5 mph - N/A   Mostly Cloudy
9:00 PM 28.4 °F 24.6 °F 26.6 °F 93% 30.09 in 10.0 mi SSE 3.5 mph - N/A   Overcast
9:15 PM 28.4 °F - 26.6 °F 93% 30.09 in 10.0 mi Calm Calm - N/A   Overcast
9:35 PM 30.2 °F - 24.8 °F 80% 30.09 in 10.0 mi Calm Calm - N/A   Overcast
9:55 PM 30.2 °F - 24.8 °F 80% 30.08 in 10.0 mi Calm Calm - N/A   Overcast
10:15 PM 30.2 °F - 24.8 °F 80% 30.08 in 10.0 mi Calm Calm - N/A   Overcast
10:35 PM 28.4 °F 22.2 °F 26.6 °F 93% 30.08 in 10.0 mi South 5.8 mph - N/A   Overcast
10:55 PM 30.2 °F 24.3 °F 26.6 °F 86% 30.08 in 10.0 mi SSE 5.8 mph - N/A   Overcast
11:15 PM 30.2 °F 26.7 °F 24.8 °F 80% 30.07 in 10.0 mi SSW 3.5 mph - N/A   Overcast
11:35 PM 30.2 °F 25.4 °F 26.6 °F 86% 30.06 in 10.0 mi SSE 4.6 mph - N/A   Overcast
11:55 PM 30.2 °F - 26.6 °F 86% 30.05 in 10.0 mi North - - N/A   Overcast